Weather History for Whiteman AFB, MO

Change the Weather History Date:

Monday, January 7, 2013

  Actual Average Record
Temperature  
Mean Temperature 34 °F -  
Max Temperature 48 °F 37 °F 69 °F (2008)
Min Temperature 21 °F 21 °F -6 °F (2014)
Degree Days  
Heating Degree Days 30    
Moisture  
Dew Point 24 °F    
Average Humidity 70    
Maximum Humidity 90    
Minimum Humidity 42    
Precipitation  
Precipitation 0.00 in - - ()
Sea Level Pressure  
Sea Level Pressure 30.22 in    
Wind  
Wind Speed 10 mph (South)    
Max Wind Speed 24 mph    
Max Gust Speed 30 mph    
Visibility 10 miles    
Events      
Averages and records for this station are not official NWS values.
T = Trace of Precipitation, MM = Missing Value Source: NWS Daily Summary

Daily Weather History Graph

Daily Weather History Graph

Search for Another Location

Airport:

Trip Planner

Search our weather history database for the weather conditions in past years. The results will help you decide how hot, cold, wet, or windy it might be!

Date:

Astronomy

Jan. 07, 2013 Rise Set
Actual Time 7:32 AM CST 5:09 PM CST
Civil Twilight 7:03 AM CST 5:38 PM CST
Nautical Twilight 6:29 AM CST 6:11 PM CST
Astronomical Twilight 5:57 AM CST 6:43 PM CST
Moon 2:57 AM CST (1/7) 1:19 PM CST (1/7)
Length of Visible Light 10h 35m
Length of Day
9h 36m
Waning Crescent, 22% of the Moon is Illuminated
Jan 7
Waning Crescent
Jan 11
New
Jan 18
First Quarter
Jan 26
Full
Feb 3
Last Quarter

Hourly Weather History & Observations

Time (CST) Temp. Windchill Dew Point Humidity Pressure Visibility Wind Dir Wind Speed Gust Speed Precip Events Conditions
12:55 AM 25.2 °F 16.5 °F 21.4 °F 86% 30.35 in 10.0 mi South 8.1 mph - N/A   Clear
1:55 AM 23.9 °F 15.0 °F 20.7 °F 87% 30.33 in 10.0 mi South 8.1 mph - N/A   Clear
2:55 AM 24.3 °F 16.3 °F 21.0 °F 87% 30.33 in 10.0 mi South 6.9 mph - N/A   Clear
3:55 AM 25.3 °F 17.6 °F 21.2 °F 84% 30.31 in 10.0 mi South 6.9 mph - N/A   Clear
4:55 AM 25.3 °F 16.7 °F 20.8 °F 83% 30.29 in 10.0 mi South 8.1 mph - N/A   Clear
5:55 AM 23.4 °F 16.2 °F 19.6 °F 85% 30.30 in 10.0 mi South 5.8 mph - N/A   Clear
6:55 AM 22.6 °F 14.3 °F 19.2 °F 87% 30.30 in 10.0 mi South 6.9 mph - N/A   Clear
7:55 AM 21.9 °F 12.5 °F 19.4 °F 90% 30.30 in 10.0 mi South 8.1 mph - N/A   Clear
8:55 AM 29.7 °F 19.6 °F 24.3 °F 80% 30.30 in 10.0 mi South 12.7 mph - N/A   Clear
9:55 AM 34.7 °F 25.1 °F 25.9 °F 70% 30.30 in 10.0 mi SSW 15.0 mph - N/A   Clear
10:55 AM 39.9 °F 31.1 °F 27.1 °F 60% 30.28 in 10.0 mi SSW 17.3 mph - N/A   Clear
11:55 AM 43.2 °F 33.8 °F 27.0 °F 53% 30.24 in 10.0 mi SW 24.2 mph 29.9 mph N/A   Clear
12:55 PM 46.2 °F 39.0 °F 28.2 °F 50% 30.19 in 10.0 mi SSW 18.4 mph - N/A   Clear
1:55 PM 46.0 °F 39.0 °F 26.8 °F 47% 30.17 in 10.0 mi SSW 17.3 mph - N/A   Clear
2:55 PM 48.4 °F - 26.1 °F 42% 30.16 in 10.0 mi SW 19.6 mph - N/A   Clear
3:55 PM 48.2 °F - 25.7 °F 42% 30.14 in 10.0 mi South 19.6 mph - N/A   Clear
4:55 PM 43.2 °F 37.9 °F 26.6 °F 52% 30.14 in 10.0 mi SSW 9.2 mph - N/A   Clear
5:55 PM 36.7 °F 29.9 °F 25.3 °F 64% 30.14 in 10.0 mi SSW 9.2 mph - N/A   Clear
6:55 PM 35.2 °F 28.8 °F 25.5 °F 68% 30.12 in 10.0 mi South 8.1 mph - N/A   Clear
7:55 PM 33.8 °F 26.4 °F 24.6 °F 69% 30.12 in 10.0 mi South 9.2 mph - N/A   Clear
8:55 PM 33.8 °F 25.3 °F 25.3 °F 71% 30.11 in 10.0 mi South 11.5 mph - N/A   Partly Cloudy
9:55 PM 33.8 °F 27.0 °F 25.9 °F 73% 30.11 in 10.0 mi South 8.1 mph - N/A   Scattered Clouds
10:55 PM 34.0 °F 26.6 °F 27.0 °F 75% 30.11 in 10.0 mi SSW 9.2 mph - N/A   Clear
11:55 PM 33.4 °F 25.9 °F 26.6 °F 76% 30.11 in 10.0 mi South 9.2 mph - N/A   Clear